Regional Weather Roundup
Issued by NWS State College, PA

Home | Current Version | Previous Version | Text Only | Print | Product List | Glossary Off
Versions: 1 2 3 4 5 6 7 8 9 10 11 12 13 14 15 16 17 18 19 20 21 22 23 24 25 26 27 28 29 30 31 32 33 34 35 36 37 38 39 40 41 42 43 44 45 46 47 48 49 50

000
ASUS41 KCTP 202303
RWRCTP

REGIONAL WEATHER ROUNDUP
NATIONAL WEATHER SERVICE STATE COLLEGE PA
600 PM EST SAT DEC 20 2014

Note: "fair" indicates few or no clouds below 12,000 feet with no
significant weather and/or obstructions to visibility.

* = STATION THAT DOES NOT REPORT PRECIPITATION /E.G. RAIN...SNOW...ETC/
    THUNDER OR FOG.

PAZ002>004-007>009-013>016-020>023-029>032-210000-
WESTERN PENNSYLVANIA

CITY           SKY/WX    TMP DP  RH WIND       PRES   REMARKS
ERIE           CLOUDY    30  21  69 CALM      30.27S
MEADVILLE      CLOUDY    28  21  75 CALM      30.22S
FRANKLIN*      CLOUDY    27  19  74 CALM      30.22F
NEW CASTLE       N/A     28  21  75 CALM      30.27R
BEAVER COUNTY  CLOUDY    28  19  69 CALM      30.24R
BUTLER*        PTCLDY    27  19  74 CALM      30.25R
PITTSBURGH INT MOCLDY    29  20  69 N6        30.24R
PITTSBURGH     MOCLDY    28  16  60 W6        30.22S
INDIANA*       CLOUDY    28  21  74 CALM      30.26F
LATROBE        MOCLDY    27  21  80 CALM      30.25S
WASHINGTON CO* NOT AVBL
$$

PAZ004>006-010>012-017>019-024>028-033>037-041-042-045-046-049>053-210000-
CENTRAL PENNSYLVANIA

CITY           SKY/WX    TMP DP  RH WIND       PRES   REMARKS
BRADFORD       CLOUDY    24  18  77 W5        30.19R
DUBOIS         CLOUDY    26  20  77 CALM      30.20R
CLEARFIELD     CLOUDY    28  20  71 CALM      30.23R
JOHNSTOWN      PTCLDY    23  18  81 NW6       30.17R
ALTOONA        CLOUDY    29  23  78 CALM      30.22R
STATE COLLEGE  CLOUDY    28  21  74 CALM      30.23R
WILLIAMSPORT   CLOUDY    32  20  61 CALM      30.25F
SELINSGROVE    CLOUDY    33  21  61 CALM      30.27S
FT INDIANTOWN  CLOUDY    32  20  62 MISG      30.27R
CAPITAL CITY   CLEAR     29  20  69 W3        30.29R
HARRISBURG     PTCLDY    28  20  71 NW6       30.28R
YORK           PTCLDY    25  19  78 W5        30.27R
$$

PAZ038>040-043-044-047-048-054-055-060>062-067>071-210000-
EASTERN PENNSYLVANIA

CITY           SKY/WX    TMP DP  RH WIND       PRES   REMARKS
SCRANTON       CLOUDY    30  20  66 NW6       30.24R
MOUNT POCONO   CLOUDY    25  17  72 NW5       30.18R
ALLENTOWN      CLOUDY    33  22  63 CALM      30.27S
QUAKERTOWN*    CLOUDY    32  25  74 CALM      30.27S
READING        CLOUDY    33  21  61 CALM      30.27R
LANCASTER      MOCLDY    32  20  61 CALM      30.27R
COATESVILLE    CLOUDY    32  25  74 W3        30.26S
POTTSTOWN      CLOUDY    32  21  64 CALM      30.28S
BLUE BELL      CLOUDY    34  27  75 CALM      30.27S
DOYLESTOWN     CLOUDY    31  22  69 CALM      30.26S
WILLOW GROVE   NOT AVBL
NORTH PHILA    CLOUDY    34  20  56 NE3       30.30R
PHILADELPHIA   CLOUDY    35  21  56 N5        30.29S
$$


USA.gov is the U.S. government's official web portal to all federal, state and local government web resources and services.